{"data":{"norad_id":51877,"epoch":"2026-09-20T04:08:12.450048Z","epoch_age_seconds":80169,"freshness":"FRESH","line1":"1 51877U 22022AB  26263.17236632  .00004446  00000+0  14273-3 0  9992","line2":"2 51877  53.1592 188.9352 0001393  96.9253 263.1908 15.34376551252841","mean_motion":15.34376551,"eccentricity":0.0001393,"inclination_deg":53.1592,"raan_deg":188.9352,"arg_perigee_deg":96.9253,"mean_anomaly_deg":263.1908,"bstar":0.00014273,"rev_number":25284,"period_min":93.849192302992,"perigee_km":461.8199977102,"apogee_km":463.7258752185,"semimajor_km":6840.9099364644,"source":"CELESTRAK","updated_at":"2026-09-20T09:00:39.949758Z"}}